| time (UTC) | temp F | wind direction | speed knots | gust knots | rain 1hr in | rain 24hr in | rain mn in | humidity % | barometer mb |
| 20260506143019 | 70 | 198 | 2.6 | 8.7 | 0.00 | 0.00 | 0.00 | 62 | |
| 20260506142018 | 69 | 204 | 1.7 | 5.2 | 0.00 | 0.00 | 0.00 | 64 | |
| 20260506141017 | 69 | 203 | 1.7 | 6.1 | 0.00 | 0.00 | 0.00 | 63 | |
| 20260506140019 | 69 | 203 | 2.6 | 6.1 | 0.00 | 0.00 | 0.00 | 63 | |
| 20260506135038 | 69 | 196 | 1.7 | 4.3 | 0.00 | 0.00 | 0.00 | 64 | |
| 20260506134017 | 69 | 206 | 1.7 | 5.2 | 0.00 | 0.00 | 0.00 | 64 | |
| 20260506133017 | 69 | 197 | 1.7 | 5.2 | 0.00 | 0.00 | 0.00 | 64 | |
| 20260506132019 | 68 | 198 | 1.7 | 6.1 | 0.00 | 0.00 | 0.00 | 65 | |
| 20260506131018 | 68 | 195 | 1.7 | 6.1 | 0.00 | 0.00 | 0.00 | 66 | |
| 20260506130018 | 68 | 197 | 1.7 | 5.2 | 0.00 | 0.00 | 0.00 | 66 | |
| 20260506125057 | 67 | 199 | 1.7 | 4.3 | 0.00 | 0.00 | 0.00 | 67 | |
| 20260506124018 | 67 | 198 | 1.7 | 4.3 | 0.00 | 0.00 | 0.00 | 67 | |
| 20260506123018 | 67 | 207 | 0.9 | 2.6 | 0.00 | 0.00 | 0.00 | 68 | |
| 20260506122017 | 67 | 203 | 1.7 | 4.3 | 0.00 | 0.00 | 0.00 | 68 | |
| 20260506121019 | 67 | 197 | 1.7 | 7.0 | 0.00 | 0.00 | 0.00 | 68 | |
| 20260506120018 | 67 | 207 | 1.7 | 7.8 | 0.00 | 0.00 | 0.00 | 68 | |
| 20260506115018 | 67 | 197 | 1.7 | 6.1 | 0.00 | 0.00 | 0.00 | 69 | |
| 20260506114017 | 66 | 197 | 1.7 | 5.2 | 0.00 | 0.00 | 0.00 | 70 | |
| 20260506113018 | 66 | 198 | 1.7 | 5.2 | 0.00 | 0.00 | 0.00 | 70 | |
| 20260506112018 | 66 | 204 | 2.6 | 6.1 | 0.00 | 0.00 | 0.00 | 70 | |
| 20260506111017 | 65 | 206 | 1.7 | 4.3 | 0.00 | 0.00 | 0.00 | 71 | |
| 20260506110017 | 65 | 200 | 2.6 | 6.1 | 0.00 | 0.00 | 0.00 | 72 | |
| 20260506105018 | 64 | 196 | 0.9 | 3.5 | 0.00 | 0.00 | 0.00 | 73 | |
| 20260506104018 | 64 | 205 | 1.7 | 5.2 | 0.00 | 0.00 | 0.00 | 73 | |
| 20260506103017 | 64 | 195 | 0.9 | 4.3 | 0.00 | 0.00 | 0.00 | 74 | |
| 20260506102017 | 64 | 208 | 1.7 | 6.1 | 0.00 | 0.00 | 0.00 | 75 | |
| 20260506101018 | 63 | 195 | 0.9 | 5.2 | 0.00 | 0.00 | 0.00 | 76 | |
| 20260506100018 | 63 | 203 | 0.9 | 2.6 | 0.00 | 0.00 | 0.00 | 77 | |
| 20260506095017 | 63 | 192 | 1.7 | 4.3 | 0.00 | 0.00 | 0.00 | 78 | |
| 20260506094019 | 62 | 198 | 0.9 | 2.6 | 0.00 | 0.00 | 0.00 | 79 | |
| 20260506093018 | 62 | 200 | 0.9 | 1.7 | 0.00 | 0.00 | 0.00 | 79 | |
| 20260506092038 | 62 | 193 | 0.9 | 3.5 | 0.00 | 0.00 | 0.00 | 78 | |
| 20260506091017 | 63 | 183 | 0.9 | 1.7 | 0.00 | 0.00 | 0.00 | 77 | |
| 20260506090018 | 63 | 195 | 0.0 | 1.7 | 0.00 | 0.00 | 0.00 | 76 | |
| 20260506085018 | 63 | 193 | 0.9 | 1.7 | 0.00 | 0.00 | 0.00 | 76 | |
| 20260506084018 | 64 | 196 | 0.9 | 2.6 | 0.00 | 0.00 | 0.00 | 74 | |
| 20260506083017 | 64 | 200 | 1.7 | 4.3 | 0.00 | 0.00 | 0.00 | 74 | |
| 20260506082038 | 64 | 192 | 0.9 | 1.7 | 0.00 | 0.00 | 0.00 | 74 | |
| 20260506081018 | 64 | 196 | 0.9 | 4.3 | 0.00 | 0.00 | 0.00 | 73 | |
| 20260506073058 | 65 | 203 | 0.9 | 2.6 | 0.00 | 0.00 | 0.00 | 71 | |
| 20260506072017 | 65 | 199 | 0.9 | 1.7 | 0.00 | 0.00 | 0.00 | 69 | |
| 20260506071040 | 66 | 199 | 1.7 | 4.3 | 0.00 | 0.00 | 0.00 | 68 | |
| 20260506062018 | 67 | 198 | 1.7 | 7.8 | 0.00 | 0.00 | 0.00 | 65 | |
| 20260506061037 | 67 | 199 | 1.7 | 5.2 | 0.00 | 0.00 | 0.00 | 64 | |
| 20260506051018 | 68 | 206 | 1.7 | 7.0 | 0.00 | 0.00 | 0.00 | 61 | |
| 20260506045017 | 68 | 198 | 1.7 | 7.0 | 0.00 | 0.00 | 0.00 | 60 | |
| 20260506044019 | 68 | 195 | 0.9 | 2.6 | 0.00 | 0.00 | 0.00 | 59 | |
| 20260506043038 | 68 | 200 | 1.7 | 6.1 | 0.00 | 0.00 | 0.00 | 59 | |
| 20260506042018 | 69 | 198 | 1.7 | 6.1 | 0.00 | 0.00 | 0.00 | 58 | |
| 20260506041017 | 69 | 197 | 1.7 | 6.1 | 0.00 | 0.00 | 0.00 | 58 | |
| 20260506040018 | 69 | 203 | 1.7 | 6.1 | 0.00 | 0.00 | 0.00 | 57 | |
| 20260506035018 | 69 | 202 | 1.7 | 5.2 | 0.00 | 0.00 | 0.00 | 57 | |
| 20260506034017 | 69 | 196 | 1.7 | 6.1 | 0.00 | 0.00 | 0.00 | 56 | |
| 20260506033017 | 69 | 203 | 2.6 | 5.2 | 0.00 | 0.00 | 0.00 | 55 | |
| 20260506032018 | 70 | 201 | 2.6 | 6.1 | 0.00 | 0.00 | 0.00 | 55 | |
| 20260506031039 | 70 | 203 | 1.7 | 5.2 | 0.00 | 0.00 | 0.00 | 54 | |
| 20260506030017 | 70 | 197 | 1.7 | 5.2 | 0.00 | 0.00 | 0.00 | 55 | |
| 20260506025019 | 70 | 206 | 1.7 | 7.0 | 0.00 | 0.00 | 0.00 | 54 | |
| 20260506024018 | 71 | 212 | 1.7 | 6.1 | 0.00 | 0.00 | 0.00 | 54 | |
| 20260506023017 | 71 | 198 | 2.6 | 8.7 | 0.00 | 0.00 | 0.00 | 53 | |
| 20260506022017 | 72 | 198 | 2.6 | 5.2 | 0.00 | 0.00 | 0.00 | 52 | |
| 20260506021018 | 72 | 201 | 2.6 | 7.0 | 0.00 | 0.00 | 0.00 | 50 | |
| 20260506020018 | 73 | 204 | 1.7 | 5.2 | 0.00 | 0.00 | 0.00 | 48 | |
| 20260506015017 | 73 | 200 | 1.7 | 3.5 | 0.00 | 0.00 | 0.00 | 45 | |
| 20260506014017 | 74 | 194 | 2.6 | 4.3 | 0.00 | 0.00 | 0.00 | 43 | |
| 20260506013018 | 75 | 202 | 1.7 | 4.3 | 0.00 | 0.00 | 0.00 | 42 | |
| 20260506012017 | 75 | 195 | 1.7 | 5.2 | 0.00 | 0.00 | 0.00 | 41 | |
| 20260506011017 | 75 | 197 | 1.7 | 4.3 | 0.00 | 0.00 | 0.00 | 41 | |
| 20260506010017 | 76 | 194 | 2.6 | 6.1 | 0.00 | 0.00 | 0.00 | 40 | |
| 20260506005018 | 76 | 196 | 1.7 | 5.2 | 0.00 | 0.00 | 0.00 | 40 | |
| 20260506004018 | 76 | 206 | 1.7 | 5.2 | 0.00 | 0.00 | 0.00 | 40 | |
| 20260506003017 | 77 | 200 | 1.7 | 4.3 | 0.00 | 0.00 | 0.00 | 38 | |
| 20260506002018 | 77 | 202 | 1.7 | 5.2 | 0.00 | 0.00 | 0.00 | 36 | |
| 20260506001038 | 77 | 202 | 1.7 | 6.1 | 0.00 | 0.00 | 0.00 | 36 | |
| 20260506000017 | 77 | 205 | 1.7 | 5.2 | 0.00 | 0.00 | 0.00 | 34 | |
| 20260505235017 | 78 | 197 | 1.7 | 6.1 | 0.00 | 0.00 | 0.00 | 34 | |
| 20260505234018 | 78 | 213 | 1.7 | 6.1 | 0.00 | 0.00 | 0.00 | 33 | |
| 20260505233018 | 78 | 201 | 1.7 | 5.2 | 0.00 | 0.00 | 0.00 | 33 | |
| 20260505232017 | 79 | 200 | 2.6 | 6.1 | 0.00 | 0.00 | 0.00 | 32 | |
| 20260505231017 | 79 | 196 | 1.7 | 6.1 | 0.00 | 0.00 | 0.00 | 31 | |
| 20260505230018 | 80 | 196 | 1.7 | 7.0 | 0.00 | 0.00 | 0.00 | 30 | |
| 20260505225017 | 80 | 207 | 1.7 | 4.3 | 0.00 | 0.00 | 0.00 | 29 | |
| 20260505224017 | 81 | 198 | 2.6 | 8.7 | 0.00 | 0.00 | 0.00 | 29 | |
| 20260505223039 | 81 | 199 | 2.6 | 8.7 | 0.00 | 0.00 | 0.00 | 29 | |
| 20260505222018 | 81 | 205 | 1.7 | 6.1 | 0.00 | 0.00 | 0.00 | 30 | |
| 20260505221018 | 81 | 193 | 1.7 | 4.3 | 0.00 | 0.00 | 0.00 | 30 | |
| 20260505220037 | 81 | 198 | 1.7 | 7.0 | 0.00 | 0.00 | 0.00 | 29 | |
| 20260505215018 | 81 | 196 | 1.7 | 6.1 | 0.00 | 0.00 | 0.00 | 29 | |
| 20260505214017 | 81 | 196 | 1.7 | 7.0 | 0.00 | 0.00 | 0.00 | 29 | |
| 20260505213017 | 82 | 200 | 3.5 | 12.2 | 0.00 | 0.00 | 0.00 | 29 | |
| 20260505212017 | 83 | 198 | 2.6 | 6.1 | 0.00 | 0.00 | 0.00 | 29 | |
| 20260505211018 | 83 | 198 | 3.5 | 8.7 | 0.00 | 0.00 | 0.00 | 28 | |
| 20260505210037 | 83 | 209 | 2.6 | 7.8 | 0.00 | 0.00 | 0.00 | 29 | |
| 20260505205057 | 83 | 204 | 3.5 | 8.7 | 0.00 | 0.00 | 0.00 | 29 | |
| 20260505204018 | 84 | 193 | 2.6 | 7.0 | 0.00 | 0.00 | 0.00 | 29 | |
| 20260505203018 | 84 | 192 | 2.6 | 7.0 | 0.00 | 0.00 | 0.00 | 29 | |
| 20260505202017 | 85 | 198 | 1.7 | 7.0 | 0.00 | 0.00 | 0.00 | 29 | |
| 20260505201017 | 85 | 198 | 2.6 | 13.0 | 0.00 | 0.00 | 0.00 | 30 | |
| 20260505200038 | 85 | 196 | 1.7 | 5.2 | 0.00 | 0.00 | 0.00 | 29 | |
| 20260505195017 | 84 | 207 | 3.5 | 9.6 | 0.00 | 0.00 | 0.00 | 29 | |
| 20260505194017 | 84 | 196 | 1.7 | 6.1 | 0.00 | 0.00 | 0.00 | 29 | |
| 20260505193017 | 83 | 193 | 3.5 | 11.3 | 0.00 | 0.00 | 0.00 | 30 | |
| 20260505192018 | 84 | 211 | 2.6 | 5.2 | 0.00 | 0.00 | 0.00 | 31 | |
| 20260505191018 | 83 | 193 | 2.6 | 5.2 | 0.00 | 0.00 | 0.00 | 31 | |
| 20260505190017 | 83 | 211 | 3.5 | 9.6 | 0.00 | 0.00 | 0.00 | 31 | |
| 20260505185016 | 83 | 197 | 1.7 | 7.0 | 0.00 | 0.00 | 0.00 | 32 | |
| 20260505184038 | 83 | 211 | 1.7 | 6.1 | 0.00 | 0.00 | 0.00 | 33 | |
| 20260505183017 | 82 | 201 | 2.6 | 7.8 | 0.00 | 0.00 | 0.00 | 34 | |
| 20260505182017 | 82 | 200 | 3.5 | 8.7 | 0.00 | 0.00 | 0.00 | 35 | |
| 20260505181036 | 82 | 205 | 3.5 | 10.4 | 0.00 | 0.00 | 0.00 | 33 | |
| 20260505180038 | 82 | 203 | 1.7 | 5.2 | 0.00 | 0.00 | 0.00 | 35 | |
| 20260505175018 | 82 | 206 | 1.7 | 4.3 | 0.00 | 0.00 | 0.00 | 36 | |
| 20260505174017 | 81 | 208 | 2.6 | 6.1 | 0.00 | 0.00 | 0.00 | 37 | |
| 20260505173038 | 81 | 200 | 2.6 | 5.2 | 0.00 | 0.00 | 0.00 | 38 | |
| 20260505172038 | 81 | 194 | 1.7 | 6.1 | 0.00 | 0.00 | 0.00 | 39 | |
| 20260505171017 | 81 | 195 | 1.7 | 4.3 | 0.00 | 0.00 | 0.00 | 39 | |
| 20260505170017 | 80 | 208 | 1.7 | 6.1 | 0.00 | 0.00 | 0.00 | 39 | |
| 20260505165018 | 80 | 206 | 2.6 | 7.8 | 0.00 | 0.00 | 0.00 | 39 | |
| 20260505164018 | 80 | 203 | 2.6 | 6.1 | 0.00 | 0.00 | 0.00 | 40 | |
| 20260505163037 | 79 | 201 | 1.7 | 5.2 | 0.00 | 0.00 | 0.00 | 40 | |
| 20260505162016 | 80 | 184 | 1.7 | 3.5 | 0.00 | 0.00 | 0.00 | 40 | |
| 20260505161018 | 79 | 203 | 2.6 | 6.1 | 0.00 | 0.00 | 0.00 | 41 | |
| 20260505153018 | 78 | 208 | 0.9 | 3.5 | 0.00 | 0.00 | 0.00 | 42 | |
| 20260505152017 | 78 | 205 | 0.9 | 4.3 | 0.00 | 0.00 | 0.00 | 42 | |
| 20260505151017 | 78 | 205 | 0.9 | 4.3 | 0.00 | 0.00 | 0.00 | 44 |